Torna al catalogo

STARLINK-35239

AttivoComunicazioniVLEO
NORAD 65623·PAYLOAD·🇺🇸 United States

Lanciato Sep 18, 2025 da Cape Canaveral Space Force Station

Loading…

Prossimi Passaggi (prossime 24 ore)

TLE

AggiornatoSource: CelesTrak SupGP

Epoca: Sep 14, 2026, 15:18 UTC

1 65623C 25210B   26257.63798611  .00057953  00000+0  17116-2 0  2578
2 65623  53.1568 144.9244 0001212 105.2765 252.2755 15.34372900    15

Traccia STARLINK-35239 in tempo reale con AllMySat

Download on the App Store